Location: Bermeries
(50.2863°N, 3.7551°E)
Time: 05:44:43
(UTC+00:00)

Cosmos 1707 - Pass Details

Date: 23 May 2024
Orbit: 473 x 485 km, 82.5° (Epoch: 19 June)

Event Time Altitude Azimuth Distance (km) Brightness Sun altitude
Exits shadow 00:27:49 20° 260° (W) 1,165 4.3 -18.3°
Maximum altitude 00:29:00 24° 290° (WNW) 1,047 4.3 -18.3°
Drops below altitude 10° 00:32:03 10° 346° (NNW) 1,679 6.2 -18.2°
Sets 00:34:27 0° 0° (N) 2,562 7.8 -18.1°
